Location: Unspecified
(0.0000°N, 0.0000°E)
Time: 06:01:30
(UTC+00:00)

METEOR M2 - Pass Details

Date: 05 July 2020
Orbit: 818 x 828 km, 98.5° (Epoch: 13 August)

Event Time Altitude Azimuth Distance (km) Brightness Sun altitude
Exits shadow 18:49:09 11° 96° (E) 2,330 ? -10.2°
Maximum altitude 18:50:46 13° 77° (ENE) 2,231 ? -10.6°
Drops below altitude 10° 18:53:02 10° 52° (NE) 2,421 ? -11.1°
Sets 18:56:48 0° 24° (NNE) 3,351 ? -12.0°
